TimeCDT,TemperatureF,Dew PointF,Humidity,Sea Level PressureIn,VisibilityMPH,Wind Direction,Wind SpeedMPH,Gust SpeedMPH,PrecipitationIn,Events,Conditions,WindDirDegrees,DateUTC
12:15 AM,73.4,55.4,53,29.96,10.0,SSE,13.8,-,N/A,,Mostly Cloudy,160,2011-10-08 05:15:00
12:35 AM,73.4,55.4,53,29.96,10.0,SSE,12.7,19.6,N/A,,Scattered Clouds,160,2011-10-08 05:35:00
12:55 AM,73.4,55.4,53,29.96,10.0,SSE,13.8,-,N/A,,Scattered Clouds,150,2011-10-08 05:55:00
1:15 AM,73.4,53.6,50,29.95,10.0,SSE,13.8,20.7,N/A,,Clear,150,2011-10-08 06:15:00
1:35 AM,71.6,53.6,53,29.94,10.0,SSE,16.1,21.9,N/A,,Clear,150,2011-10-08 06:35:00
1:55 AM,71.6,53.6,53,29.94,10.0,SE,12.7,24.2,N/A,,Clear,140,2011-10-08 06:55:00
2:15 AM,71.6,51.8,50,29.94,10.0,SSE,16.1,21.9,N/A,,Clear,150,2011-10-08 07:15:00
2:35 AM,71.6,51.8,50,29.95,10.0,SSE,15.0,20.7,N/A,,Clear,150,2011-10-08 07:35:00
2:55 AM,71.6,51.8,50,29.95,10.0,SE,13.8,-,N/A,,Scattered Clouds,140,2011-10-08 07:55:00
3:35 AM,69.8,50.0,49,29.95,10.0,SSE,16.1,20.7,N/A,,Clear,150,2011-10-08 08:35:00
3:55 AM,69.8,50.0,49,29.95,10.0,SSE,16.1,20.7,N/A,,Mostly Cloudy,150,2011-10-08 08:55:00
4:15 AM,69.8,50.0,49,29.95,10.0,SE,12.7,20.7,N/A,,Mostly Cloudy,140,2011-10-08 09:15:00
4:35 AM,69.8,50.0,49,29.95,10.0,SE,15.0,20.7,N/A,,Mostly Cloudy,140,2011-10-08 09:35:00
4:55 AM,69.8,50.0,49,29.95,10.0,SSE,12.7,19.6,N/A,,Mostly Cloudy,150,2011-10-08 09:55:00
5:35 AM,69.8,50.0,49,29.97,10.0,South,8.1,16.1,N/A,,Overcast,170,2011-10-08 10:35:00
5:55 AM,68.0,50.0,52,29.98,10.0,SSE,10.4,-,N/A,Thunderstorm,Overcast,160,2011-10-08 10:55:00
6:15 AM,68.0,50.0,52,29.98,10.0,SSE,12.7,-,N/A,,Overcast,150,2011-10-08 11:15:00
6:35 AM,68.0,50.0,52,29.99,10.0,SSE,11.5,-,N/A,,Mostly Cloudy,150,2011-10-08 11:35:00
6:55 AM,66.2,50.0,56,30.00,10.0,SE,9.2,-,N/A,,Scattered Clouds,140,2011-10-08 11:55:00
7:15 AM,68.0,50.0,52,30.01,10.0,SSE,9.2,-,N/A,,Mostly Cloudy,160,2011-10-08 12:15:00
7:35 AM,68.0,50.0,52,30.01,10.0,SSE,9.2,-,N/A,,Overcast,150,2011-10-08 12:35:00
7:55 AM,68.0,50.0,52,30.02,10.0,South,9.2,-,N/A,,Overcast,170,2011-10-08 12:55:00
8:15 AM,68.0,50.0,52,30.02,10.0,SE,8.1,-,N/A,,Overcast,140,2011-10-08 13:15:00
8:35 AM,68.0,50.0,52,30.02,10.0,SE,9.2,-,N/A,,Overcast,130,2011-10-08 13:35:00
8:55 AM,68.0,50.0,52,30.01,10.0,SE,11.5,-,N/A,,Overcast,130,2011-10-08 13:55:00
9:15 AM,66.2,51.8,60,30.02,10.0,SE,9.2,-,N/A,,Scattered Clouds,140,2011-10-08 14:15:00
9:35 AM,69.8,51.8,53,30.02,10.0,SE,10.4,-,N/A,,Scattered Clouds,140,2011-10-08 14:35:00
9:55 AM,69.8,51.8,53,30.02,10.0,SE,12.7,18.4,N/A,,Scattered Clouds,130,2011-10-08 14:55:00
10:15 AM,71.6,51.8,50,30.03,10.0,SSE,13.8,19.6,N/A,,Scattered Clouds,160,2011-10-08 15:15:00
10:35 AM,69.8,51.8,53,30.04,10.0,South,10.4,-,N/A,,Mostly Cloudy,170,2011-10-08 15:35:00
10:55 AM,73.4,51.8,47,30.04,10.0,South,10.4,16.1,N/A,,Overcast,180,2011-10-08 15:55:00
11:15 AM,73.4,53.6,50,30.05,10.0,South,12.7,19.6,N/A,,Overcast,170,2011-10-08 16:15:00
11:35 AM,71.6,53.6,53,30.05,10.0,SSE,8.1,19.6,N/A,,Overcast,160,2011-10-08 16:35:00
11:55 AM,73.4,53.6,50,30.05,10.0,SSE,9.2,-,N/A,,Overcast,160,2011-10-08 16:55:00
12:15 PM,73.4,53.6,50,30.05,10.0,SSE,11.5,18.4,N/A,,Overcast,160,2011-10-08 17:15:00
12:35 PM,73.4,53.6,50,30.05,10.0,SSE,10.4,-,N/A,,Overcast,160,2011-10-08 17:35:00
12:55 PM,73.4,53.6,50,30.04,10.0,SSE,9.2,-,N/A,,Overcast,160,2011-10-08 17:55:00
1:15 PM,73.4,55.4,53,30.04,10.0,South,11.5,-,N/A,,Overcast,180,2011-10-08 18:15:00
1:35 PM,73.4,55.4,53,30.03,10.0,South,6.9,-,N/A,,Overcast,190,2011-10-08 18:35:00
2:15 PM,77.0,55.4,47,30.03,10.0,South,9.2,17.3,N/A,,Overcast,180,2011-10-08 19:15:00
2:35 PM,77.0,55.4,47,30.02,10.0,South,10.4,18.4,N/A,,Overcast,190,2011-10-08 19:35:00
2:55 PM,77.0,55.4,47,30.01,10.0,SSE,9.2,-,N/A,,Overcast,160,2011-10-08 19:55:00
3:15 PM,78.8,53.6,42,30.01,10.0,South,9.2,-,N/A,,Overcast,170,2011-10-08 20:15:00
3:35 PM,78.8,53.6,42,30.01,10.0,South,6.9,-,N/A,,Overcast,190,2011-10-08 20:35:00
3:55 PM,78.8,53.6,42,30.01,10.0,SW,4.6,-,N/A,,Scattered Clouds,220,2011-10-08 20:55:00
4:15 PM,78.8,53.6,42,30.01,10.0,South,8.1,-,N/A,,Scattered Clouds,170,2011-10-08 21:15:00
4:35 PM,78.8,51.8,39,30.02,10.0,SSE,8.1,-,N/A,,Overcast,150,2011-10-08 21:35:00
4:55 PM,78.8,51.8,39,30.02,10.0,South,9.2,-,N/A,,Mostly Cloudy,180,2011-10-08 21:55:00
5:15 PM,78.8,53.6,42,30.02,10.0,SE,6.9,-,N/A,,Mostly Cloudy,140,2011-10-08 22:15:00
5:35 PM,77.0,55.4,47,30.02,10.0,SE,9.2,17.3,N/A,,Mostly Cloudy,130,2011-10-08 22:35:00
5:55 PM,75.2,57.2,53,30.02,10.0,SE,11.5,-,N/A,,Mostly Cloudy,130,2011-10-08 22:55:00
6:15 PM,73.4,59.0,61,30.03,10.0,SE,11.5,-,N/A,,Scattered Clouds,130,2011-10-08 23:15:00
6:35 PM,73.4,59.0,61,30.03,10.0,SE,11.5,18.4,N/A,,Mostly Cloudy,140,2011-10-08 23:35:00
6:55 PM,71.6,59.0,64,30.04,10.0,SE,10.4,-,N/A,,Mostly Cloudy,130,2011-10-08 23:55:00
7:15 PM,71.6,59.0,64,30.06,10.0,SSE,12.7,-,N/A,,Overcast,150,2011-10-09 00:15:00
7:35 PM,71.6,59.0,64,30.06,10.0,SSE,10.4,-,N/A,,Overcast,150,2011-10-09 00:35:00
7:55 PM,69.8,59.0,68,30.06,10.0,SSE,6.9,-,N/A,,Overcast,150,2011-10-09 00:55:00
8:15 PM,69.8,59.0,68,30.06,10.0,South,5.8,-,N/A,,Overcast,180,2011-10-09 01:15:00
8:35 PM,69.8,59.0,68,30.07,10.0,SSE,6.9,-,N/A,Rain,Light Rain,160,2011-10-09 01:35:00
9:15 PM,68.0,59.0,73,30.08,10.0,SE,5.8,-,N/A,Rain,Light Rain,140,2011-10-09 02:15:00
9:35 PM,64.4,60.8,88,30.08,10.0,SE,6.9,-,N/A,Rain,Light Rain,130,2011-10-09 02:35:00
9:55 PM,64.4,60.8,88,30.08,10.0,SE,5.8,-,N/A,Rain,Light Rain,130,2011-10-09 02:55:00
10:15 PM,64.4,60.8,88,30.07,10.0,East,6.9,-,0.01,Rain,Light Rain,90,2011-10-09 03:15:00
10:35 PM,64.4,60.8,88,30.07,10.0,East,8.1,-,0.01,,Overcast,100,2011-10-09 03:35:00
10:55 PM,64.4,60.8,88,30.08,10.0,ESE,10.4,-,0.01,,Overcast,110,2011-10-09 03:55:00
11:15 PM,64.4,60.8,88,30.10,10.0,SSE,6.9,-,N/A,Rain,Rain,160,2011-10-09 04:15:00
11:35 PM,64.4,60.8,88,30.10,10.0,SE,5.8,-,0.01,,Light Drizzle,130,2011-10-09 04:35:00
11:55 PM,64.4,60.8,88,30.10,10.0,SE,5.8,-,0.01,,Overcast,130,2011-10-09 04:55:00